Tracking 19846 objects as of 18-Sep-2019
HD Live streaming from Space Station
objects crossing your sky now

SHIJIAN-16 (SJ-16)

Track SHIJIAN-16 (SJ-16) now!
10-day predictions
SHIJIAN-16 (SJ-16) is classified as:


NORAD ID: 39358
Int'l Code: 2013-057A
Perigee: 606.4 km
Apogee: 631.4 km
Inclination: 75.0 °
Period: 96.9 minutes
Semi major axis: 6989 km
RCS: Unknown
Launch date: October 25, 2013
Source: People's Republic of China (PRC)
Launch site: Jiuquan Satellite Launch Center, China (JSC)

SHIJIAN-16 will be used mainly for conducting space environment exploration and technological experiments.
aabbcc
Your satellite tracking list
Your tracking list is empty




NASA's NSSDC Master Catalog

Two Line Element Set (TLE):
1 39358U 13057A   19260.67084977  .00000102  00000-0  14972-4 0  9990
2 39358  74.9751 308.7418 0017887  50.3562 309.9198 14.85593902319925
Source of the keplerian elements: AFSPC